DMSP 5D-2 F11 DEB, 28308

Orbit data source: Space-Track

DMSP 5D-2 F11 DEB, 28308 is space debris in SSO originally from a launch on Thu, 28 Nov 1991 UTC launched from the Air Force Western Test Range (AFWTR). Debris objects in space refer to the collection of defunct objects orbiting the Earth. Examples of debris include non-operational satellites, rocket bodies, and fragments generated from explosions, collisions, or faulty payload assembly.

Loading next visibility...
Identifier
28308, 1991-082V
Orbit
SSO
Country
Flag of USUS
Related business
Manufacturer
Unknown
Mission
Spacecraft
Bus & Motor
Unknown
Mass
Unknown
Launch date (UTC)
1991-11-28 (34 years ago)
Launch vehicle
Unknown
Launch site
Air Force Western Test Range (AFWTR)
Object type
Payload
Rocket body
Debris
Shape & HBR
Unknown shape, 0.1 m
Radar Cross Section
Small (<0.1 m²)

Expand to show TLE details & history
Last TLE update: 1 day ago

TLE from 1 day ago
0 DMSP 5D-2 F11 DEB
1 28308U 91082V   26120.54839845  .00001113  00000-0  44697-3 0  9997
2 28308  98.5628 151.2249 0015058 156.6784 357.1136 14.30082630142371
Epoch: 2026-04-30T13:09Z
TLE epoch observation values (Epoch: 2026-04-30T13:09:41.626Z)
Latitude
25.93667°
Longitude
-80.51467°
Altitude
783.832 km
Speed
7.47 km/s
True Right ascension
22h 21m 36s
True Declination
25° 48' 08"
Sunlit
Object was in daylight at epoch
Visualization orbit readout
Latitude
Unknown
Longitude
Unknown
Altitude
Unknown
Speed
Unknown
Apparent Right ascension
Unknown
Apparent Declination
Unknown
Sunlit
N/A
Visualization observer readout
Local Sidereal Time
20:52:57
Azimuth
Unknown
Elevation
Unknown
Doppler factor
Unknown
Orbital elements
Apogee altitude
799.384 km
Perigee altitude
777.801 km
Semi-major axis
7,166.73 km
Eccentricity
0.00151
Inclination
98.5628°
RAAN
151.2249°
Arg. of periapsis
156.6784°
True anomaly
357.10489°
Mean anomaly
357.1136°
Eccentric anomaly
357.10925°
Mean motion
3.57735 °/min
Orbital period
100.63 mins
BSTAR
0.00044697
Loading maneuver chart data...
Computing Atmospheric mass density...
Loading historical data...
Loading historical data...
Loading historical data...
Loading historical data...
Loading historical data...
Loading historical data...
Loading historical data...

Documentation

Showing up to 5 results
|